User: anonymous   Login
Location: Camp Creek
(33.9000°N, 111.8167°W)
Time: 13:45:48
(UTC-07:00)
Language:

Cosmos 2322 Rocket - Orbit

View from above orbital plane
View from above orbital plane
View from above satellite
View from above satellite

Ground track
Ground track

The orbit data is extracted from the following two-line orbital elements,

1 23705U 95058B   15089.50308802  .00000221  00000-0  13839-3 0  9995
2 23705 071.0215 287.7296 0010393 093.1890 267.0422 14.15058726  2646
Epoch (UTC): 30 March 2015 12:04:26
Eccentricity: 0.0010393
inclination: 71.0215°
perigee height: 834 km
apogee height: 849 km
right ascension of ascending node: 287.7296°
argument of perigee: 93.1890°
revolutions per day: 14.15058726
mean anomaly at epoch: 267.0422°
orbit number at epoch: 264

The dashed part of the orbit path shows where the satellite is in the earth's shadow,  

DLR